W5IC Weather Reports


time (UTC)temp
C
wind
direction
speed
KPH
gust
KPH
rain 1hr
cm
rain 24hr
cm
rain mn
cm
humidity
%
barometer
mb
20260505052205 17 107 0.0 0.0 0.00 0.00 0.00 80 1013.2
20260505051705 17 107 0.0 0.0 0.00 0.00 0.00 79 1013.2
20260505051204 17 107 0.0 1.6 0.00 0.00 0.00 79 1013.3
20260505050704 17 107 0.0 1.6 0.00 0.00 0.00 78 1013.2
20260505050204 17 107 0.0 1.6 0.00 0.00 0.00 78 1013.1
20260505041635 18 254 0.0 1.6 0.00 0.00 0.00 75 1013.1
20260505041135 18 254 0.0 1.6 0.00 0.00 0.00 75 1013.2
20260505040634 18 259 0.0 1.6 0.00 0.00 0.00 74 1013.1
20260505040135 18 123 0.0 1.6 0.00 0.00 0.00 74 1013.2
20260505035635 18 123 0.0 1.6 0.00 0.00 0.00 74 1013.1
20260505035450 18 123 0.0 0.0 0.00 0.00 0.00 74 1013.3
20260505034632 18 123 0.0 0.0 0.00 0.00 0.00 74 1013.1
20260505034133 18 123 0.0 4.8 0.00 0.00 0.00 73 1013.2
20260505033633 18 123 0.0 4.8 0.00 0.00 0.00 73 1013.2
20260505033133 18 170 0.0 3.2 0.00 0.00 0.00 72 1013.2
20260505032634 19 184 0.0 0.0 0.00 0.00 0.00 71 1013.2
20260505032133 19 184 0.0 1.6 0.00 0.00 0.00 71 1013.3
20260505032121 19 184 0.0 1.6 0.00 0.00 0.00 70 1013.1
20260505031130 19 184 0.0 1.6 0.00 0.00 0.00 70 1013.2
20260505030631 19 132 0.0 1.6 0.00 0.00 0.00 70 1013.2
20260505030128 19 107 0.0 1.6 0.00 0.00 0.00 69 1013.1
20260505025628 19 107 0.0 1.6 0.00 0.00 0.00 69 1013.2
20260505025128 20 107 0.0 4.8 0.00 0.00 0.00 68 1013.1
20260505024628 20 107 0.0 4.8 0.00 0.00 0.00 68 1012.9
20260505024128 20 109 0.0 3.2 0.00 0.00 0.00 67 1012.8
20260505023624 20 228 0.0 1.6 0.00 0.00 0.00 67 1012.9
20260505023124 20 228 0.0 1.6 0.00 0.00 0.00 67 1012.7
20260505022624 20 228 0.0 1.6 0.00 0.00 0.00 66 1012.8
20260505022123 20 228 0.0 1.6 0.00 0.00 0.00 66 1012.6
20260505021624 20 229 0.0 1.6 0.00 0.00 0.00 65 1012.6
20260505021124 20 229 0.0 3.2 0.00 0.00 0.00 64 1012.8
20260505020624 21 229 0.0 4.8 0.00 0.00 0.00 64 1012.7
20260505020604 21 229 0.0 4.8 0.00 0.00 0.00 63 1012.7
20260505015624 21 201 0.0 6.4 0.00 0.00 0.00 63 1012.7
20260505015124 21 185 0.0 6.4 0.00 0.00 0.00 62 1012.5
20260505015028 21 206 0.0 3.2 0.00 0.00 0.00 62 1012.4
20260505014601 21 198 0.0 4.8 0.00 0.00 0.00 61 1012.5
20260505013621 21 100 0.0 6.4 0.00 0.00 0.00 60 1012.5
20260505013119 21 180 1.6 6.4 0.00 0.00 0.00 60 1012.5
20260505012619 21 177 0.0 4.8 0.00 0.00 0.00 59 1012.4
20260505012118 22 200 0.0 8.0 0.00 0.00 0.00 58 1012.3
20260505011616 22 209 1.6 9.7 0.00 0.00 0.00 58 1012.2
20260505011116 22 181 1.6 9.7 0.00 0.00 0.00 57 1012.2
20260505010616 22 218 0.0 3.2 0.00 0.00 0.00 56 1012.1
20260505010116 22 192 1.6 6.4 0.00 0.00 0.00 56 1012.2
20260505005613 22 200 1.6 6.4 0.00 0.00 0.00 55 1012.3
20260505005114 22 232 1.6 6.4 0.00 0.00 0.00 54 1012.3
20260505005056 22 210 1.6 6.4 0.00 0.00 0.00 54 1012.0
20260505004112 22 211 1.6 6.4 0.00 0.00 0.00 53 1012.1
20260505003610 23 221 1.6 6.4 0.00 0.00 0.00 52 1012.1
20260505003106 23 221 1.6 8.0 0.00 0.00 0.00 51 1012.2
20260505002606 23 244 3.2 8.0 0.00 0.00 0.00 51 1012.3
20260505002106 23 221 1.6 8.0 0.00 0.00 0.00 51 1012.5
20260505001606 23 216 1.6 6.4 0.00 0.00 0.00 51 1012.4
20260505001104 23 213 1.6 6.4 0.00 0.00 0.00 50 1012.5
20260505000605 23 207 1.6 11.3 0.00 0.00 0.00 50 1012.6
20260505000104 24 206 1.6 11.3 0.00 0.00 0.00 49 1012.7
20260504235605 24 115 1.6 6.4 0.00 0.00 0.00 50 1012.8
20260504235106 24 221 1.6 12.9 0.00 0.00 0.00 50 1012.8
20260504234606 24 166 3.2 12.9 0.00 0.00 0.00 49 1012.9
20260504234104 24 187 1.6 8.0 0.00 0.00 0.00 49 1012.9
20260504233604 24 157 1.6 6.4 0.00 0.00 0.00 49 1012.8
20260504233105 24 202 1.6 9.7 0.00 0.00 0.00 49 1012.8
20260504232605 25 179 3.2 9.7 0.00 0.00 0.00 47 1012.8
20260504232105 25 178 3.2 9.7 0.00 0.00 0.00 47 1012.9
20260504231604 25 239 1.6 9.7 0.00 0.00 0.00 47 1013.0
20260504231101 25 175 3.2 9.7 0.00 0.00 0.00 47 1012.9
20260504230555 25 111 3.2 11.3 0.00 0.00 0.00 46 1013.0
20260504230049 25 210 3.2 12.9 0.00 0.00 0.00 46 1012.9
20260504225548 25 231 1.6 12.9 0.00 0.00 0.00 46 1012.9
20260504225049 25 197 3.2 9.7 0.00 0.00 0.00 45 1013.0
20260504225041 25 167 3.2 11.3 0.00 0.00 0.00 46 1013.1
20260504224044 26 212 3.2 11.3 0.00 0.00 0.00 45 1013.3
20260504223544 26 92 1.6 6.4 0.00 0.00 0.00 46 1013.2
20260504223044 26 203 3.2 11.3 0.00 0.00 0.00 46 1013.3
20260504222541 26 279 3.2 19.3 0.00 0.00 0.00 45 1013.2
20260504222043 26 189 1.6 19.3 0.00 0.00 0.00 45 1013.2
20260504222034 26 132 1.6 9.7 0.00 0.00 0.00 46 1013.3
20260504221039 26 202 3.2 9.7 0.00 0.00 0.00 44 1013.3
20260504220540 26 90 1.6 8.0 0.00 0.00 0.00 45 1013.4
20260504220039 26 136 1.6 8.0 0.00 0.00 0.00 46 1013.4
20260504215537 27 87 3.2 11.3 0.00 0.00 0.00 45 1013.5
20260504215037 26 184 3.2 12.9 0.00 0.00 0.00 44 1013.7
20260504215023 26 217 1.6 12.9 0.00 0.00 0.00 46 1013.6
20260504214036 26 98 3.2 11.3 0.00 0.00 0.00 47 1013.6
20260504213536 26 186 3.2 11.3 0.00 0.00 0.00 44 1013.7
20260504213521 26 122 3.2 9.7 0.00 0.00 0.00 47 1013.6
20260504212534 26 214 3.2 9.7 0.00 0.00 0.00 45 1013.6
20260504212033 26 214 3.2 12.9 0.00 0.00 0.00 44 1013.7
20260504211532 26 174 4.8 17.7 0.00 0.00 0.00 45 1013.7
20260504211032 26 219 3.2 17.7 0.00 0.00 0.00 45 1013.7
20260504210532 26 203 1.6 6.4 0.00 0.00 0.00 45 1013.8
20260504210033 26 229 3.2 9.7 0.00 0.00 0.00 45 1013.8
20260504205531 26 121 3.2 9.7 0.00 0.00 0.00 46 1014.0
20260504205032 26 163 3.2 11.3 0.00 0.00 0.00 44 1014.2
20260504204531 26 217 4.8 12.9 0.00 0.00 0.00 44 1014.4
20260504204032 26 246 3.2 12.9 0.00 0.00 0.00 44 1014.4
20260504203532 26 239 3.2 11.3 0.00 0.00 0.00 44 1014.3
20260504203032 26 178 3.2 11.3 0.00 0.00 0.00 45 1014.4
20260504202533 26 252 3.2 11.3 0.00 0.00 0.00 44 1014.6
20260504202526 26 54 4.8 19.3 0.00 0.00 0.00 44 1014.7
20260504201530 26 238 4.8 19.3 0.00 0.00 0.00 43 1014.9
20260504201028 26 204 3.2 9.7 0.00 0.00 0.00 45 1014.6
20260504200528 26 217 3.2 11.3 0.00 0.00 0.00 45 1014.7
20260504200022 26 154 3.2 11.3 0.00 0.00 0.00 45 1014.9
20260504195522 26 66 3.2 9.7 0.00 0.00 0.00 46 1014.8
20260504195513 26 229 4.8 14.5 0.00 0.00 0.00 44 1015.1
20260504194522 26 88 4.8 14.5 0.00 0.00 0.00 45 1015.1
20260504194022 26 219 3.2 11.3 0.00 0.00 0.00 43 1015.3
20260504193522 26 191 3.2 14.5 0.00 0.00 0.00 42 1015.3
20260504193446 26 231 4.8 17.7 0.00 0.00 0.00 42 1015.4
20260504193222 26 207 4.8 14.5 0.00 0.00 0.00 45 1015.4
20260504191522 26 191 3.2 12.9 0.00 0.00 0.00 44 1015.6
20260504191022 26 223 4.8 12.9 0.00 0.00 0.00 46 1015.8
20260504190723 26 178 4.8 19.3 0.00 0.00 0.00 46 1015.8
20260504185520 26 173 3.2 14.5 0.00 0.00 0.00 45 1015.8
20260504185019 26 125 3.2 12.9 0.00 0.00 0.00 46 1015.7
20260504184521 26 271 3.2 9.7 0.00 0.00 0.00 46 1015.8
20260504184513 26 137 3.2 9.7 0.00 0.00 0.00 45 1015.7
20260504183520 26 176 3.2 12.9 0.00 0.00 0.00 44 1015.8
20260504183020 26 236 3.2 12.9 0.00 0.00 0.00 44 1016.0
20260504182519 26 67 3.2 12.9 0.00 0.00 0.00 46 1016.0
20260504182020 26 187 3.2 12.9 0.00 0.00 0.00 45 1016.1
20260504181519 26 215 3.2 9.7 0.00 0.00 0.00 44 1016.2
20260504181020 26 178 3.2 12.9 0.00 0.00 0.00 45 1016.3
20260504180520 26 219 3.2 12.9 0.00 0.00 0.00 45 1016.5
20260504180020 26 216 4.8 12.9 0.00 0.00 0.00 47 1016.4
20260504175519 25 226 4.8 12.9 0.00 0.00 0.00 44 1016.5
20260504175020 25 260 4.8 11.3 0.00 0.00 0.00 44 1016.5
20260504174520 25 211 4.8 19.3 0.00 0.00 0.00 43 1016.5
20260504174018 25 157 4.8 19.3 0.00 0.00 0.00 46 1016.6
20260504173520 25 228 3.2 14.5 0.00 0.00 0.00 45 1016.6
20260504173014 26 249 3.2 14.5 0.00 0.00 0.00 44 1016.6
20260504172513 26 192 3.2 8.0 0.00 0.00 0.00 45 1016.7
20260504172013 26 201 1.6 8.0 0.00 0.00 0.00 48 1016.7
20260504171514 25 200 3.2 11.3 0.00 0.00 0.00 45 1016.8
20260504171012 25 188 3.2 11.3 0.00 0.00 0.00 45 1016.9
20260504170511 25 263 1.6 8.0 0.00 0.00 0.00 46 1016.8
20260504150935 23 224 1.6 9.7 0.00 0.00 0.00 55 1017.6
20260504150435 23 275 1.6 9.7 0.00 0.00 0.00 56 1017.5
20260504140929 20 258 1.6 8.0 0.00 0.00 0.00 66 1017.4
20260504140424 20 197 1.6 9.7 0.00 0.00 0.00 68 1017.6
20260504130407 16 213 0.0 1.6 0.00 0.00 0.00 91 1017.5
20260504110408 11 244 0.0 0.0 0.00 0.00 0.00 91 1016.7
20260504100407 12 244 0.0 0.0 0.00 0.00 0.00 91 1016.7
20260504081333 13 244 0.0 0.0 0.00 0.00 0.00 88 1017.1
20260504080832 13 244 0.0 0.0 0.00 0.00 0.00 88 1017.2
20260504080802 13 244 0.0 0.0 0.00 0.00 0.00 88 1017.1
20260504070332 14 244 0.0 0.0 0.00 0.00 0.00 85 1017.4
20260504070240 14 244 0.0 0.0 0.00 0.00 0.00 84 1017.2